Year,Month,Day,Hour,Minute,Value (Times are PST for temperature in C)
2008,12,02,00,00,8.80
2008,12,02,00,01,8.70
2008,12,02,00,02,8.70
2008,12,02,00,03,8.70
2008,12,02,00,04,8.70
2008,12,02,00,05,8.70
2008,12,02,00,06,8.70
2008,12,02,00,07,8.70
2008,12,02,00,08,8.70
2008,12,02,00,09,8.60
2008,12,02,00,10,8.60
2008,12,02,00,11,8.60
2008,12,02,00,12,8.60
2008,12,02,00,13,8.60
2008,12,02,00,14,8.60
2008,12,02,00,15,8.60
2008,12,02,00,16,8.60
2008,12,02,00,17,8.60
2008,12,02,00,18,8.60
2008,12,02,00,19,8.50
2008,12,02,00,20,8.50
2008,12,02,00,21,8.50
2008,12,02,00,22,8.50
2008,12,02,00,23,8.50
2008,12,02,00,24,8.50
2008,12,02,00,25,8.50
2008,12,02,00,26,8.40
2008,12,02,00,27,8.40
2008,12,02,00,28,8.40
2008,12,02,00,29,8.40
2008,12,02,00,30,8.40
2008,12,02,00,31,8.40
2008,12,02,00,32,8.40
2008,12,02,00,33,8.40
2008,12,02,00,34,8.30
2008,12,02,00,35,8.30
2008,12,02,00,36,8.30
2008,12,02,00,37,8.30
2008,12,02,00,38,8.30
2008,12,02,00,39,8.30
2008,12,02,00,40,8.30
2008,12,02,00,41,8.30
2008,12,02,00,42,8.30
2008,12,02,00,43,8.20
2008,12,02,00,44,8.20
2008,12,02,00,45,8.20
2008,12,02,00,46,8.20
2008,12,02,00,47,8.20
2008,12,02,00,48,8.20
2008,12,02,00,49,8.20
2008,12,02,00,50,8.20
2008,12,02,00,51,8.10
2008,12,02,00,52,8.10
2008,12,02,00,53,8.10
2008,12,02,00,54,8.10
2008,12,02,00,55,8.10
2008,12,02,00,56,8.10
2008,12,02,00,57,8.10
2008,12,02,00,58,8.00
2008,12,02,00,59,8.00
2008,12,02,01,00,8.00
2008,12,02,01,01,8.00
2008,12,02,01,02,8.00
2008,12,02,01,03,7.90
2008,12,02,01,04,7.90
2008,12,02,01,05,7.90
2008,12,02,01,06,7.90
2008,12,02,01,07,8.00
2008,12,02,01,08,8.10
2008,12,02,01,09,8.20
2008,12,02,01,10,8.20
2008,12,02,01,11,8.30
2008,12,02,01,12,8.40
2008,12,02,01,13,8.40
2008,12,02,01,14,8.40
2008,12,02,01,15,8.40
2008,12,02,01,16,8.40
2008,12,02,01,17,8.30
2008,12,02,01,18,8.30
2008,12,02,01,19,8.30
2008,12,02,01,20,8.30
2008,12,02,01,21,8.20
2008,12,02,01,22,8.20
2008,12,02,01,23,8.20
2008,12,02,01,24,8.10
2008,12,02,01,25,8.10
2008,12,02,01,26,8.10
2008,12,02,01,27,8.00
2008,12,02,01,28,8.00
2008,12,02,01,29,8.00
2008,12,02,01,30,7.90
2008,12,02,01,31,7.90
2008,12,02,01,32,7.80
2008,12,02,01,33,7.80
2008,12,02,01,34,7.80
2008,12,02,01,35,7.80
2008,12,02,01,36,7.80
2008,12,02,01,37,7.80
2008,12,02,01,38,7.80
2008,12,02,01,39,7.80
2008,12,02,01,40,7.80
2008,12,02,01,41,7.80
2008,12,02,01,42,7.80
2008,12,02,01,43,7.80
2008,12,02,01,44,7.70
2008,12,02,01,45,7.70
2008,12,02,01,46,7.70
2008,12,02,01,47,7.70
2008,12,02,01,48,7.70
2008,12,02,01,49,7.70
2008,12,02,01,50,7.70
2008,12,02,01,51,7.70
2008,12,02,01,52,7.70
2008,12,02,01,53,7.70
2008,12,02,01,54,7.70
2008,12,02,01,55,7.70
2008,12,02,01,56,7.70
2008,12,02,01,57,7.70
2008,12,02,01,58,7.70
2008,12,02,01,59,7.70
2008,12,02,02,00,7.70
2008,12,02,02,01,7.70
2008,12,02,02,02,7.70
2008,12,02,02,03,7.70
2008,12,02,02,04,7.70
2008,12,02,02,05,7.70
2008,12,02,02,06,7.70
2008,12,02,02,07,7.70
2008,12,02,02,08,7.70
2008,12,02,02,09,7.70
2008,12,02,02,10,7.70
2008,12,02,02,11,7.70
2008,12,02,02,12,7.70
2008,12,02,02,13,7.80
2008,12,02,02,14,7.80
2008,12,02,02,15,7.80
2008,12,02,02,16,7.80
2008,12,02,02,17,7.90
2008,12,02,02,18,7.90
2008,12,02,02,19,7.90
2008,12,02,02,20,8.00
2008,12,02,02,21,8.00
2008,12,02,02,22,8.00
2008,12,02,02,23,8.10
2008,12,02,02,24,8.10
2008,12,02,02,25,8.20
2008,12,02,02,26,8.20
2008,12,02,02,27,8.30
2008,12,02,02,28,8.30
2008,12,02,02,29,8.40
2008,12,02,02,30,8.40
2008,12,02,02,31,8.50
2008,12,02,02,32,8.60
2008,12,02,02,33,8.60
2008,12,02,02,34,8.60
2008,12,02,02,35,8.70
2008,12,02,02,36,8.70
2008,12,02,02,37,8.80
2008,12,02,02,38,8.80
2008,12,02,02,39,8.80
2008,12,02,02,40,8.90
2008,12,02,02,41,8.90
2008,12,02,02,42,8.90
2008,12,02,02,43,8.90
2008,12,02,02,44,8.90
2008,12,02,02,45,8.90
2008,12,02,02,46,8.90
2008,12,02,02,47,8.80
2008,12,02,02,48,8.80
2008,12,02,02,49,8.70
2008,12,02,02,50,8.70
2008,12,02,02,51,8.60
2008,12,02,02,52,8.60
2008,12,02,02,53,8.60
2008,12,02,02,54,8.50
2008,12,02,02,55,8.50
2008,12,02,02,56,8.40
2008,12,02,02,57,8.40
2008,12,02,02,58,8.40
2008,12,02,02,59,8.30
2008,12,02,03,00,8.30
2008,12,02,03,01,8.30
2008,12,02,03,02,8.20
2008,12,02,03,03,8.20
2008,12,02,03,04,8.10
2008,12,02,03,05,8.10
2008,12,02,03,06,8.10
2008,12,02,03,07,8.10
2008,12,02,03,08,8.10
2008,12,02,03,09,8.10
2008,12,02,03,10,8.10
2008,12,02,03,11,8.10
2008,12,02,03,12,8.10
2008,12,02,03,13,8.10
2008,12,02,03,14,8.20
2008,12,02,03,15,8.20
2008,12,02,03,16,8.10
2008,12,02,03,17,8.20
2008,12,02,03,18,8.10
2008,12,02,03,19,8.10
2008,12,02,03,20,8.10
2008,12,02,03,21,8.00
2008,12,02,03,22,8.00
2008,12,02,03,23,7.90
2008,12,02,03,24,7.90
2008,12,02,03,25,7.90
2008,12,02,03,26,7.80
2008,12,02,03,27,7.80
2008,12,02,03,28,7.80
2008,12,02,03,29,7.70
2008,12,02,03,30,7.70
2008,12,02,03,31,7.70
2008,12,02,03,32,7.70
2008,12,02,03,33,7.70
2008,12,02,03,34,7.70
2008,12,02,03,35,7.60
2008,12,02,03,36,7.60
2008,12,02,03,37,7.60
2008,12,02,03,38,7.60
2008,12,02,03,39,7.50
2008,12,02,03,40,7.50
2008,12,02,03,41,7.50
2008,12,02,03,42,7.40
2008,12,02,03,43,7.40
2008,12,02,03,44,7.40
2008,12,02,03,45,7.40
2008,12,02,03,46,7.40
2008,12,02,03,47,7.40
2008,12,02,03,48,7.40
2008,12,02,03,49,7.40
2008,12,02,03,50,7.40
2008,12,02,03,51,7.40
2008,12,02,03,52,7.40
2008,12,02,03,53,7.30
2008,12,02,03,54,7.30
2008,12,02,03,55,7.30
2008,12,02,03,56,7.30
2008,12,02,03,57,7.30
2008,12,02,03,58,7.30
2008,12,02,03,59,7.30
2008,12,02,04,00,7.30
2008,12,02,04,01,7.30
2008,12,02,04,02,7.40
2008,12,02,04,03,7.40
2008,12,02,04,04,7.40
2008,12,02,04,05,7.40
2008,12,02,04,06,7.30
2008,12,02,04,07,7.30
2008,12,02,04,08,7.30
2008,12,02,04,09,7.20
2008,12,02,04,10,7.20
2008,12,02,04,11,7.20
2008,12,02,04,12,7.20
2008,12,02,04,13,7.20
2008,12,02,04,14,7.20
2008,12,02,04,15,7.20
2008,12,02,04,16,7.10
2008,12,02,04,17,7.10
2008,12,02,04,18,7.10
2008,12,02,04,19,7.10
2008,12,02,04,20,7.10
2008,12,02,04,21,7.10
2008,12,02,04,22,7.20
2008,12,02,04,23,7.20
2008,12,02,04,24,7.20
2008,12,02,04,25,7.20
2008,12,02,04,26,7.20
2008,12,02,04,27,7.20
2008,12,02,04,28,7.10
2008,12,02,04,29,7.10
2008,12,02,04,30,7.10
2008,12,02,04,31,7.10
2008,12,02,04,32,7.10
2008,12,02,04,33,7.10
2008,12,02,04,34,7.10
2008,12,02,04,35,7.10
2008,12,02,04,36,7.10
2008,12,02,04,37,7.10
2008,12,02,04,38,7.10
2008,12,02,04,39,7.10
2008,12,02,04,40,7.10
2008,12,02,04,41,7.10
2008,12,02,04,42,7.00
2008,12,02,04,43,7.00
2008,12,02,04,44,7.00
2008,12,02,04,45,7.00
2008,12,02,04,46,7.00
2008,12,02,04,47,7.00
2008,12,02,04,48,7.00
2008,12,02,04,49,7.00
2008,12,02,04,50,7.00
2008,12,02,04,51,6.90
2008,12,02,04,52,6.90
2008,12,02,04,53,6.90
2008,12,02,04,54,6.90
2008,12,02,04,55,6.90
2008,12,02,04,56,6.80
2008,12,02,04,57,6.80
2008,12,02,04,58,6.80
2008,12,02,04,59,6.80
2008,12,02,05,00,6.80
2008,12,02,05,01,6.80
2008,12,02,05,02,6.80
2008,12,02,05,03,6.70
2008,12,02,05,04,6.70
2008,12,02,05,05,6.70
2008,12,02,05,06,6.70
2008,12,02,05,07,6.70
2008,12,02,05,08,6.60
2008,12,02,05,09,6.60
2008,12,02,05,10,6.60
2008,12,02,05,11,6.60
2008,12,02,05,12,6.60
2008,12,02,05,13,6.60
2008,12,02,05,14,6.60
2008,12,02,05,15,6.60
2008,12,02,05,16,6.60
2008,12,02,05,17,6.60
2008,12,02,05,18,6.50
2008,12,02,05,19,6.50
2008,12,02,05,20,6.50
2008,12,02,05,21,6.50
2008,12,02,05,22,6.50
2008,12,02,05,23,6.40
2008,12,02,05,24,6.40
2008,12,02,05,25,6.50
2008,12,02,05,26,6.50
2008,12,02,05,27,6.50
2008,12,02,05,28,6.50
2008,12,02,05,29,6.50
2008,12,02,05,30,6.50
2008,12,02,05,31,6.50
2008,12,02,05,32,6.50
2008,12,02,05,33,6.60
2008,12,02,05,34,6.60
2008,12,02,05,35,6.50
2008,12,02,05,36,6.40
2008,12,02,05,37,6.30
2008,12,02,05,38,6.20
2008,12,02,05,39,6.10
2008,12,02,05,40,6.10
2008,12,02,05,41,6.00
2008,12,02,05,42,6.00
2008,12,02,05,43,5.90
2008,12,02,05,44,5.90
2008,12,02,05,45,5.90
2008,12,02,05,46,5.90
2008,12,02,05,47,5.90
2008,12,02,05,48,5.80
2008,12,02,05,49,5.80
2008,12,02,05,50,5.80
2008,12,02,05,51,5.70
2008,12,02,05,52,5.70
2008,12,02,05,53,5.70
2008,12,02,05,54,5.70
2008,12,02,05,55,5.70
2008,12,02,05,56,5.70
2008,12,02,05,57,5.80
2008,12,02,05,58,5.80
2008,12,02,05,59,5.80
2008,12,02,06,00,5.80
2008,12,02,06,01,5.80
2008,12,02,06,02,5.90
2008,12,02,06,03,5.90
2008,12,02,06,04,6.00
2008,12,02,06,05,6.10
2008,12,02,06,06,6.10
2008,12,02,06,07,6.20
2008,12,02,06,08,6.30
2008,12,02,06,09,6.40
2008,12,02,06,10,6.40
2008,12,02,06,11,6.40
2008,12,02,06,12,6.70
2008,12,02,06,13,7.00
2008,12,02,06,14,7.10
2008,12,02,06,15,7.20
2008,12,02,06,16,7.20
2008,12,02,06,17,7.30
2008,12,02,06,18,7.20
2008,12,02,06,19,7.30
2008,12,02,06,20,7.40
2008,12,02,06,21,7.60
2008,12,02,06,22,7.70
2008,12,02,06,23,7.80
2008,12,02,06,24,7.90
2008,12,02,06,25,7.90
2008,12,02,06,26,8.00
2008,12,02,06,27,7.80
2008,12,02,06,28,7.50
2008,12,02,06,29,7.20
2008,12,02,06,30,6.90
2008,12,02,06,31,6.70
2008,12,02,06,32,6.50
2008,12,02,06,33,6.40
2008,12,02,06,34,6.20
2008,12,02,06,35,6.10
2008,12,02,06,36,6.00
2008,12,02,06,37,5.90
2008,12,02,06,38,5.80
2008,12,02,06,39,5.70
2008,12,02,06,40,5.60
2008,12,02,06,41,5.50
2008,12,02,06,42,5.50
2008,12,02,06,43,5.40
2008,12,02,06,44,5.40
2008,12,02,06,45,5.30
2008,12,02,06,46,5.30
2008,12,02,06,47,5.20
2008,12,02,06,48,5.10
2008,12,02,06,49,5.10
2008,12,02,06,50,5.10
2008,12,02,06,51,5.00
2008,12,02,06,52,5.00
2008,12,02,06,53,5.00
2008,12,02,06,54,5.10
2008,12,02,06,55,5.10
2008,12,02,06,56,5.10
2008,12,02,06,57,5.10
2008,12,02,06,58,5.00
2008,12,02,06,59,5.00
2008,12,02,07,00,5.00
2008,12,02,07,01,5.00
2008,12,02,07,02,5.00
2008,12,02,07,03,5.00
2008,12,02,07,04,5.00
2008,12,02,07,05,5.00
2008,12,02,07,06,5.00
2008,12,02,07,07,5.00
2008,12,02,07,08,5.00
2008,12,02,07,09,5.00
2008,12,02,07,10,4.90
2008,12,02,07,11,4.90
2008,12,02,07,12,4.90
2008,12,02,07,13,4.90
2008,12,02,07,14,4.90
2008,12,02,07,15,4.80
2008,12,02,07,16,4.80
2008,12,02,07,17,4.80
2008,12,02,07,18,4.80
2008,12,02,07,19,4.80
2008,12,02,07,20,4.80
2008,12,02,07,21,4.80
2008,12,02,07,22,4.90
2008,12,02,07,23,4.90
2008,12,02,07,24,4.90
2008,12,02,07,25,4.90
2008,12,02,07,26,4.90
2008,12,02,07,27,4.90
2008,12,02,07,28,4.90
2008,12,02,07,29,4.90
2008,12,02,07,30,4.90
2008,12,02,07,31,4.90
2008,12,02,07,32,5.00
2008,12,02,07,33,5.00
2008,12,02,07,34,5.00
2008,12,02,07,35,5.10
2008,12,02,07,36,5.00
2008,12,02,07,37,5.00
2008,12,02,07,38,5.00
2008,12,02,07,39,4.90
2008,12,02,07,40,4.90
2008,12,02,07,41,4.80
2008,12,02,07,42,4.80
2008,12,02,07,43,4.80
2008,12,02,07,44,4.80
2008,12,02,07,45,4.80
2008,12,02,07,46,4.80
2008,12,02,07,47,4.80
2008,12,02,07,48,4.80
2008,12,02,07,49,4.90
2008,12,02,07,50,4.90
2008,12,02,07,51,5.00
2008,12,02,07,52,5.00
2008,12,02,07,53,5.10
2008,12,02,07,54,5.10
2008,12,02,07,55,5.20
2008,12,02,07,56,5.20
2008,12,02,07,57,5.20
2008,12,02,07,58,5.20
2008,12,02,07,59,5.20
2008,12,02,08,00,5.30
2008,12,02,08,01,5.30
2008,12,02,08,02,5.40
2008,12,02,08,03,5.40
2008,12,02,08,04,5.40
2008,12,02,08,05,5.40
2008,12,02,08,06,5.50
2008,12,02,08,07,5.60
2008,12,02,08,08,5.70
2008,12,02,08,09,5.80
2008,12,02,08,10,6.00
2008,12,02,08,11,6.20
2008,12,02,08,12,6.40
2008,12,02,08,13,6.60
2008,12,02,08,14,6.80
2008,12,02,08,15,6.90
2008,12,02,08,16,7.20
2008,12,02,08,17,7.20
2008,12,02,08,18,7.30
2008,12,02,08,19,7.30
2008,12,02,08,20,7.40
2008,12,02,08,21,7.50
2008,12,02,08,22,7.60
2008,12,02,08,23,7.70
2008,12,02,08,24,7.80
2008,12,02,08,25,7.80
2008,12,02,08,26,7.90
2008,12,02,08,27,7.90
2008,12,02,08,28,8.00
2008,12,02,08,29,8.00
2008,12,02,08,30,8.00
2008,12,02,08,31,8.10
2008,12,02,08,32,8.10
2008,12,02,08,33,8.10
2008,12,02,08,34,8.20
2008,12,02,08,35,8.20
2008,12,02,08,36,8.30
2008,12,02,08,37,8.30
2008,12,02,08,38,8.30
2008,12,02,08,39,8.30
2008,12,02,08,40,8.30
2008,12,02,08,41,8.40
2008,12,02,08,42,8.40
2008,12,02,08,43,8.40
2008,12,02,08,44,8.40
2008,12,02,08,45,8.40
2008,12,02,08,46,8.40
2008,12,02,08,47,8.50
2008,12,02,08,48,8.50
2008,12,02,08,49,8.50
2008,12,02,08,50,8.50
2008,12,02,08,51,8.60
2008,12,02,08,52,8.60
2008,12,02,08,53,8.60
2008,12,02,08,54,8.60
2008,12,02,08,55,8.60
2008,12,02,08,56,8.60
2008,12,02,08,57,8.70
2008,12,02,08,58,8.70
2008,12,02,08,59,8.80
2008,12,02,09,00,8.80
2008,12,02,09,01,9.00
2008,12,02,09,02,9.00
2008,12,02,09,03,9.10
2008,12,02,09,04,9.20
2008,12,02,09,05,9.30
2008,12,02,09,06,9.40
2008,12,02,09,07,9.40
2008,12,02,09,08,9.50
2008,12,02,09,09,9.60
2008,12,02,09,10,9.60
2008,12,02,09,11,9.70
2008,12,02,09,12,9.70
2008,12,02,09,13,9.80
2008,12,02,09,14,9.80
2008,12,02,09,15,9.90
2008,12,02,09,16,9.90
2008,12,02,09,17,10.00
2008,12,02,09,18,10.00
2008,12,02,09,19,10.10
2008,12,02,09,20,10.10
2008,12,02,09,21,10.10
2008,12,02,09,22,10.20
2008,12,02,09,23,10.10
2008,12,02,09,24,10.00
2008,12,02,09,25,9.80
2008,12,02,09,26,9.60
2008,12,02,09,27,9.40
2008,12,02,09,28,9.20
2008,12,02,09,29,9.00
2008,12,02,09,30,8.90
2008,12,02,09,31,8.80
2008,12,02,09,32,8.60
2008,12,02,09,33,8.40
2008,12,02,09,34,8.30
2008,12,02,09,35,8.20
2008,12,02,09,36,8.00
2008,12,02,09,37,7.90
2008,12,02,09,38,7.80
2008,12,02,09,39,7.70
2008,12,02,09,40,7.60
2008,12,02,09,41,7.50
2008,12,02,09,42,7.40
2008,12,02,09,43,7.30
2008,12,02,09,44,7.30
2008,12,02,09,45,7.20
2008,12,02,09,46,7.20
2008,12,02,09,47,7.20
2008,12,02,09,48,7.20
2008,12,02,09,49,7.10
2008,12,02,09,50,7.10
2008,12,02,09,51,7.10
2008,12,02,09,52,7.10
2008,12,02,09,53,7.10
2008,12,02,09,54,7.10
2008,12,02,09,55,7.20
2008,12,02,09,56,7.20
2008,12,02,09,57,7.20
2008,12,02,09,58,7.20
2008,12,02,09,59,7.20
2008,12,02,10,00,7.20
2008,12,02,10,01,7.30
2008,12,02,10,02,7.30
2008,12,02,10,03,7.30
2008,12,02,10,04,7.30
2008,12,02,10,05,7.30
2008,12,02,10,06,7.30
2008,12,02,10,07,7.30
2008,12,02,10,08,7.30
2008,12,02,10,09,7.40
2008,12,02,10,10,7.40
2008,12,02,10,11,7.40
2008,12,02,10,12,7.50
2008,12,02,10,13,7.50
2008,12,02,10,14,7.60
2008,12,02,10,15,7.60
2008,12,02,10,16,7.60
2008,12,02,10,17,7.70
2008,12,02,10,18,7.70
2008,12,02,10,19,7.70
2008,12,02,10,20,7.80
2008,12,02,10,21,7.80
2008,12,02,10,22,7.80
2008,12,02,10,23,7.90
2008,12,02,10,24,7.90
2008,12,02,10,25,8.00
2008,12,02,10,26,8.00
2008,12,02,10,27,8.10
2008,12,02,10,28,8.10
2008,12,02,10,29,8.10
2008,12,02,10,30,8.20
2008,12,02,10,31,8.20
2008,12,02,10,32,8.30
2008,12,02,10,33,8.30
2008,12,02,10,34,8.30
2008,12,02,10,35,8.40
2008,12,02,10,36,8.40
2008,12,02,10,37,8.40
2008,12,02,10,38,8.50
2008,12,02,10,39,8.60
2008,12,02,10,40,8.60
2008,12,02,10,41,8.70
2008,12,02,10,42,8.70
2008,12,02,10,43,8.70
2008,12,02,10,44,8.80
2008,12,02,10,45,8.80
2008,12,02,10,46,8.90
2008,12,02,10,47,8.90
2008,12,02,10,48,9.00
2008,12,02,10,49,9.10
2008,12,02,10,50,9.10
2008,12,02,10,51,9.30
2008,12,02,10,52,9.40
2008,12,02,10,53,9.60
2008,12,02,10,54,9.70
2008,12,02,10,55,9.90
2008,12,02,10,56,10.00
2008,12,02,10,57,10.30
2008,12,02,10,58,10.40
2008,12,02,10,59,10.60
2008,12,02,11,00,10.70
2008,12,02,11,01,10.80
2008,12,02,11,02,10.90
2008,12,02,11,03,11.00
2008,12,02,11,04,11.10
2008,12,02,11,05,11.10
2008,12,02,11,06,11.20
2008,12,02,11,07,11.20
2008,12,02,11,08,11.30
2008,12,02,11,09,11.30
2008,12,02,11,10,11.40
2008,12,02,11,11,11.50
2008,12,02,11,12,11.60
2008,12,02,11,13,11.70
2008,12,02,11,14,11.70
2008,12,02,11,15,11.80
2008,12,02,11,16,11.80
2008,12,02,11,17,11.80
2008,12,02,11,18,11.70
2008,12,02,11,19,11.70
2008,12,02,11,20,11.70
2008,12,02,11,21,11.70
2008,12,02,11,22,11.70
2008,12,02,11,23,11.70
2008,12,02,11,24,11.70
2008,12,02,11,25,11.70
2008,12,02,11,26,11.70
2008,12,02,11,27,11.70
2008,12,02,11,28,11.70
2008,12,02,11,29,11.70
2008,12,02,11,30,11.70
2008,12,02,11,31,11.70
2008,12,02,11,32,11.80
2008,12,02,11,33,11.80
2008,12,02,11,34,11.80
2008,12,02,11,35,11.80
2008,12,02,11,36,11.90
2008,12,02,11,37,11.90
2008,12,02,11,38,11.90
2008,12,02,11,39,11.90
2008,12,02,11,40,11.90
2008,12,02,11,41,12.00
2008,12,02,11,42,12.00
2008,12,02,11,43,12.00
2008,12,02,11,44,12.10
2008,12,02,11,45,12.10
2008,12,02,11,46,12.10
2008,12,02,11,47,12.20
2008,12,02,11,48,12.20
2008,12,02,11,49,12.30
2008,12,02,11,50,12.30
2008,12,02,11,51,12.40
2008,12,02,11,52,12.40
2008,12,02,11,53,12.50
2008,12,02,11,54,12.50
2008,12,02,11,55,12.60
2008,12,02,11,56,12.70
2008,12,02,11,57,12.70
2008,12,02,11,58,12.80
2008,12,02,11,59,12.80
2008,12,02,12,00,12.90
2008,12,02,12,01,12.90
2008,12,02,12,02,12.90
2008,12,02,12,03,13.00
2008,12,02,12,04,13.10
2008,12,02,12,05,13.10
2008,12,02,12,06,13.10
2008,12,02,12,07,13.20
2008,12,02,12,08,13.20
2008,12,02,12,09,13.30
2008,12,02,12,10,13.30
2008,12,02,12,11,13.30
2008,12,02,12,12,13.30
2008,12,02,12,13,13.30
2008,12,02,12,14,13.40
2008,12,02,12,15,13.40
2008,12,02,12,16,13.40
2008,12,02,12,17,13.40
2008,12,02,12,18,13.40
2008,12,02,12,19,13.40
2008,12,02,12,20,13.40
2008,12,02,12,21,13.40
2008,12,02,12,22,13.40
2008,12,02,12,23,13.40
2008,12,02,12,24,13.40
2008,12,02,12,25,13.50
2008,12,02,12,26,13.50
2008,12,02,12,27,13.50
2008,12,02,12,28,13.60
2008,12,02,12,29,13.60
2008,12,02,12,30,13.60
2008,12,02,12,31,13.60
2008,12,02,12,32,13.60
2008,12,02,12,33,13.70
2008,12,02,12,34,13.70
2008,12,02,12,35,13.70
2008,12,02,12,36,13.70
2008,12,02,12,37,13.70
2008,12,02,12,38,13.70
2008,12,02,12,39,13.70
2008,12,02,12,40,13.70
2008,12,02,12,41,13.70
2008,12,02,12,42,13.70
2008,12,02,12,43,13.70
2008,12,02,12,44,13.70
2008,12,02,12,45,13.60
2008,12,02,12,46,13.60
2008,12,02,12,47,13.50
2008,12,02,12,48,13.40
2008,12,02,12,49,13.30
2008,12,02,12,50,13.30
2008,12,02,12,51,13.30
2008,12,02,12,52,13.20
2008,12,02,12,53,13.20
2008,12,02,12,54,13.20
2008,12,02,12,55,13.10
2008,12,02,12,56,13.10
2008,12,02,12,57,13.10
2008,12,02,12,58,13.10
2008,12,02,12,59,13.10
2008,12,02,13,00,13.10
2008,12,02,13,01,13.00
2008,12,02,13,02,13.00
2008,12,02,13,03,12.90
2008,12,02,13,04,12.80
2008,12,02,13,05,12.80
2008,12,02,13,06,12.80
2008,12,02,13,07,12.70
2008,12,02,13,08,12.60
2008,12,02,13,09,12.60
2008,12,02,13,10,12.50
2008,12,02,13,11,12.30
2008,12,02,13,12,12.30
2008,12,02,13,13,12.20
2008,12,02,13,14,12.20
2008,12,02,13,15,12.10
2008,12,02,13,16,12.10
2008,12,02,13,17,12.00
2008,12,02,13,18,12.00
2008,12,02,13,19,12.00
2008,12,02,13,20,11.90
2008,12,02,13,21,11.90
2008,12,02,13,22,11.90
2008,12,02,13,23,11.80
2008,12,02,13,24,11.80
2008,12,02,13,25,11.70
2008,12,02,13,26,11.60
2008,12,02,13,27,11.50
2008,12,02,13,28,11.40
2008,12,02,13,29,11.30
2008,12,02,13,30,11.20
2008,12,02,13,31,11.00
2008,12,02,13,32,11.00
2008,12,02,13,33,10.90
2008,12,02,13,34,10.80
2008,12,02,13,35,10.80
2008,12,02,13,36,10.70
2008,12,02,13,37,10.60
2008,12,02,13,38,10.60
2008,12,02,13,39,10.50
2008,12,02,13,40,10.50
2008,12,02,13,41,10.50
2008,12,02,13,42,10.40
2008,12,02,13,43,10.40
2008,12,02,13,44,10.40
2008,12,02,13,45,10.50
2008,12,02,13,46,10.50
2008,12,02,13,47,10.50
2008,12,02,13,48,10.50
2008,12,02,13,49,10.60
2008,12,02,13,50,10.60
2008,12,02,13,51,10.60
2008,12,02,13,52,10.70
2008,12,02,13,53,10.70
2008,12,02,13,54,10.70
2008,12,02,13,55,10.70
2008,12,02,13,56,10.70
2008,12,02,13,57,10.70
2008,12,02,13,58,10.70
2008,12,02,13,59,10.70
2008,12,02,14,00,10.70
2008,12,02,14,01,10.70
2008,12,02,14,02,10.70
2008,12,02,14,03,10.70
2008,12,02,14,04,10.70
2008,12,02,14,05,10.70
2008,12,02,14,06,10.70
2008,12,02,14,07,10.70
2008,12,02,14,08,10.70
2008,12,02,14,09,10.70
2008,12,02,14,10,10.70
2008,12,02,14,11,10.70
2008,12,02,14,12,10.70
2008,12,02,14,13,10.70
2008,12,02,14,14,10.70
2008,12,02,14,15,10.80
2008,12,02,14,16,10.80
2008,12,02,14,17,10.80
2008,12,02,14,18,10.80
2008,12,02,14,19,10.80
2008,12,02,14,20,10.70
2008,12,02,14,21,10.70
2008,12,02,14,22,10.70
2008,12,02,14,23,10.70
2008,12,02,14,24,10.70
2008,12,02,14,25,10.60
2008,12,02,14,26,10.60
2008,12,02,14,27,10.60
2008,12,02,14,28,10.50
2008,12,02,14,29,10.50
2008,12,02,14,30,10.40
2008,12,02,14,31,10.40
2008,12,02,14,32,10.30
2008,12,02,14,33,10.30
2008,12,02,14,34,10.30
2008,12,02,14,35,10.20
2008,12,02,14,36,10.20
2008,12,02,14,37,10.20
2008,12,02,14,38,10.10
2008,12,02,14,39,10.10
2008,12,02,14,40,10.10
2008,12,02,14,41,10.10
2008,12,02,14,42,10.10
2008,12,02,14,43,10.00
2008,12,02,14,44,10.00
2008,12,02,14,45,10.00
2008,12,02,14,46,10.00
2008,12,02,14,47,10.00
2008,12,02,14,48,9.90
2008,12,02,14,49,9.90
2008,12,02,14,50,9.90
2008,12,02,14,51,9.90
2008,12,02,14,52,9.80
2008,12,02,14,53,9.80
2008,12,02,14,54,9.80
2008,12,02,14,55,9.80
2008,12,02,14,56,9.70
2008,12,02,14,57,9.70
2008,12,02,14,58,9.70
2008,12,02,14,59,9.70
2008,12,02,15,00,9.70
2008,12,02,15,01,9.70
2008,12,02,15,02,9.70
2008,12,02,15,03,9.60
2008,12,02,15,04,9.60
2008,12,02,15,05,9.60
2008,12,02,15,06,9.60
2008,12,02,15,07,9.50
2008,12,02,15,08,9.50
2008,12,02,15,09,9.50
2008,12,02,15,10,9.50
2008,12,02,15,11,9.50
2008,12,02,15,12,9.50
2008,12,02,15,13,9.50
2008,12,02,15,14,9.40
2008,12,02,15,15,9.40
2008,12,02,15,16,9.40
2008,12,02,15,17,9.40
2008,12,02,15,18,9.40
2008,12,02,15,19,9.30
2008,12,02,15,20,9.30
2008,12,02,15,21,9.30
2008,12,02,15,22,9.30
2008,12,02,15,23,9.30
2008,12,02,15,24,9.30
2008,12,02,15,25,9.30
2008,12,02,15,26,9.30
2008,12,02,15,27,9.30
2008,12,02,15,28,9.30
2008,12,02,15,29,9.30
2008,12,02,15,30,9.20
2008,12,02,15,31,9.20
2008,12,02,15,32,9.20
2008,12,02,15,33,9.20
2008,12,02,15,34,9.20
2008,12,02,15,35,9.20
2008,12,02,15,36,9.20
2008,12,02,15,37,9.20
2008,12,02,15,38,9.20
2008,12,02,15,39,9.20
2008,12,02,15,40,9.20
2008,12,02,15,41,9.20
2008,12,02,15,42,9.10
2008,12,02,15,43,9.10
2008,12,02,15,44,9.10
2008,12,02,15,45,9.10
2008,12,02,15,46,9.10
2008,12,02,15,47,9.10
2008,12,02,15,48,9.10
2008,12,02,15,49,9.10
2008,12,02,15,50,9.10
2008,12,02,15,51,9.10
2008,12,02,15,52,9.10
2008,12,02,15,53,9.10
2008,12,02,15,54,9.10
2008,12,02,15,55,9.10
2008,12,02,15,56,9.10
2008,12,02,15,57,9.10
2008,12,02,15,58,9.10
2008,12,02,15,59,9.10
2008,12,02,16,00,9.10
2008,12,02,16,01,9.10
2008,12,02,16,02,9.10
2008,12,02,16,03,9.10
2008,12,02,16,04,9.00
2008,12,02,16,05,9.00
2008,12,02,16,06,9.00
2008,12,02,16,07,9.00
2008,12,02,16,08,9.00
2008,12,02,16,09,9.00
2008,12,02,16,10,9.00
2008,12,02,16,11,9.00
2008,12,02,16,12,9.00
2008,12,02,16,13,9.00
2008,12,02,16,14,9.00
2008,12,02,16,15,9.00
2008,12,02,16,16,9.00
2008,12,02,16,17,9.00
2008,12,02,16,18,9.00
2008,12,02,16,19,9.00
2008,12,02,16,20,8.90
2008,12,02,16,21,8.90
2008,12,02,16,22,8.90
2008,12,02,16,23,8.90
2008,12,02,16,24,8.90
2008,12,02,16,25,8.90
2008,12,02,16,26,8.90
2008,12,02,16,27,8.90
2008,12,02,16,28,8.90
2008,12,02,16,29,8.90
2008,12,02,16,30,8.90
2008,12,02,16,31,8.90
2008,12,02,16,32,8.90
2008,12,02,16,33,8.80
2008,12,02,16,34,8.80
2008,12,02,16,35,8.80
2008,12,02,16,36,8.80
2008,12,02,16,37,8.80
2008,12,02,16,38,8.80
2008,12,02,16,39,8.80
2008,12,02,16,40,8.80
2008,12,02,16,41,8.80
2008,12,02,16,42,8.80
2008,12,02,16,43,8.80
2008,12,02,16,44,8.70
2008,12,02,16,45,8.70
2008,12,02,16,46,8.70
2008,12,02,16,47,8.70
2008,12,02,16,48,8.70
2008,12,02,16,49,8.70
2008,12,02,16,50,8.70
2008,12,02,16,51,8.70
2008,12,02,16,52,8.70
2008,12,02,16,53,8.70
2008,12,02,16,54,8.70
2008,12,02,16,55,8.70
2008,12,02,16,56,8.70
2008,12,02,16,57,8.70
2008,12,02,16,58,8.70
2008,12,02,16,59,8.70
2008,12,02,17,00,8.70
2008,12,02,17,01,8.70
2008,12,02,17,02,8.70
2008,12,02,17,03,8.70
2008,12,02,17,04,8.60
2008,12,02,17,05,8.60
2008,12,02,17,06,8.60
2008,12,02,17,07,8.60
2008,12,02,17,08,8.60
2008,12,02,17,09,8.60
2008,12,02,17,10,8.60
2008,12,02,17,11,8.60
2008,12,02,17,12,8.60
2008,12,02,17,13,8.60
2008,12,02,17,14,8.60
2008,12,02,17,15,8.60
2008,12,02,17,16,8.60
2008,12,02,17,17,8.60
2008,12,02,17,18,8.60
2008,12,02,17,19,8.50
2008,12,02,17,20,8.50
2008,12,02,17,21,8.50
2008,12,02,17,22,8.50
2008,12,02,17,23,8.50
2008,12,02,17,24,8.40
2008,12,02,17,25,8.40
2008,12,02,17,26,8.40
2008,12,02,17,27,8.40
2008,12,02,17,28,8.40
2008,12,02,17,29,8.40
2008,12,02,17,30,8.40
2008,12,02,17,31,8.30
2008,12,02,17,32,8.30
2008,12,02,17,33,8.30
2008,12,02,17,34,8.30
2008,12,02,17,35,8.30
2008,12,02,17,36,8.30
2008,12,02,17,37,8.30
2008,12,02,17,38,8.30
2008,12,02,17,39,8.20
2008,12,02,17,40,8.20
2008,12,02,17,41,8.20
2008,12,02,17,42,8.20
2008,12,02,17,43,8.20
2008,12,02,17,44,8.20
2008,12,02,17,45,8.20
2008,12,02,17,46,8.20
2008,12,02,17,47,8.20
2008,12,02,17,48,8.20
2008,12,02,17,49,8.20
2008,12,02,17,50,8.20
2008,12,02,17,51,8.20
2008,12,02,17,52,8.20
2008,12,02,17,53,8.20
2008,12,02,17,54,8.20
2008,12,02,17,55,8.20